This demonstration page uses our WeatherBlox Daily Observations layout. Learn more.

Left ArrowRight Arrow

Hourly Observations for May 21, 2022

Temp ( °F °C ) Dew Point ( °F °C ) Humidity (%) Winds ( mph kmh ) Pressure ( in mb ) Visibility ( mi km ) Precip ( " mm )
12:54 am 00:54 Clear 54 12.2 39 3.9 57 57 N 16 26 29.96 1015 10 16 0.00 0.00
1:54 am 01:54 Clear 52 11.1 40 4.4 64 64 NNW 13 20 30.00 1016 10 16 0.00 0.00
2:54 am 02:54 Clear 49 9.4 40 4.4 71 71 N 13 20 30.02 1017 10 16 0.00 0.00
3:54 am 03:54 Clear 49 9.4 38 3.3 66 66 N 14 22 30.03 1017 10 16 0.00 0.00
4:54 am 04:54 Clear 49 9.4 37 2.8 64 64 N 12 19 30.04 1017 10 16 0.00 0.00
5:54 am 05:54 Mostly Clear 49 9.4 37 2.8 64 64 N 9 15 30.09 1019 10 16 0.00 0.00
6:54 am 06:54 Cloudy 49 9.4 36 2.2 61 61 N 14 22 30.13 1020 10 16 0.00 0.00
7:54 am 07:54 Partly Cloudy 48 8.9 36 2.2 63 63 N 14 22 30.13 1020 10 16 0.00 0.00
8:54 am 08:54 Cloudy 49 9.4 36 2.2 61 61 N 15 24 30.16 1021 10 16 0.00 0.00
9:54 am 09:54 Cloudy 49 9.4 33 0.6 55 55 N 14 22 30.19 1022 10 16 0.00 0.00
10:54 am 10:54 Cloudy 49 9.4 33 0.6 55 55 N 13 20 30.22 1023 10 16 0.00 0.00
11:54 am 11:54 Cloudy 51 10.6 33 0.6 50 50 NNW 12 19 30.23 1024 10 16 0.00 0.00
12:54 pm 12:54 Mostly Sunny 54 12.2 34 1.1 47 47 N 9 15 30.21 1023 10 16 0.00 0.00
1:54 pm 13:54 Mostly Cloudy 55 12.8 32 0 42 42 N 9 15 30.21 1023 10 16 0.00 0.00
2:54 pm 14:54 Partly Cloudy 60 15.6 33 0.6 36 36 NNW 20 31 30.19 1023 10 16 0.00 0.00
3:54 pm 15:54 Mostly Sunny 60 15.6 32 0 35 35 NW 21 33 30.18 1022 10 16 0.00 0.00
4:54 pm 16:54 Mostly Sunny 60 15.6 30 -1.1 32 32 NW 14 22 30.19 1022 10 16 0.00 0.00
5:54 pm 17:54 Mostly Sunny 61 16.1 30 -1.1 31 31 NW 16 26 30.20 1023 10 16 0.00 0.00
6:54 pm 18:54 Sunny 60 15.6 29 -1.7 31 31 NW 15 24 30.21 1023 10 16 0.00 0.00
7:54 pm 19:54 Mostly Sunny 58 14.4 29 -1.7 33 33 NNW 12 19 30.24 1024 10 16 0.00 0.00
8:54 pm 20:54 Clear 54 12.2 29 -1.7 38 38 NNW 6 9 30.26 1025 10 16 0.00 0.00
9:54 pm 21:54 Clear 48 8.9 30 -1.1 50 50 NNW 5 7 30.28 1026 10 16 0.00 0.00
10:54 pm 22:54 Clear 49 9.4 31 -0.6 50 50 NW 5 7 30.31 1026 10 16 0.00 0.00
11:54 pm 23:54 Clear 38 3.3 31 -0.6 76 76 NNW 3 6 30.33 1027 10 16 0.00 0.00

Powered by AerisWeather